Lawton, OK

2:32 PM CDT on October 18, 2017 (GMT -0500)
Lawton-Fort Sill Regional

Weather History for KLAW - November, 2012

Change the Weather History Date:

Thursday, November 22, 2012

  Actual Average Record
Temperature  
Mean Temperature 67 °F -  
Max Temperature 77 °F 61 °F 80 °F (1955)
Min Temperature 57 °F 35 °F 23 °F (1948)
Cooling Degree Days 2    
Growing Degree Days 17 (Base 50)    
Moisture  
Dew Point 50 °F    
Average Humidity 60    
Maximum Humidity 81    
Minimum Humidity 40    
Precipitation  
Precipitation 0.00 in - - ()
Sea Level Pressure  
Sea Level Pressure 30.01 in    
Wind  
Wind Speed 11 mph (SSE)    
Max Wind Speed 30 mph    
Max Gust Speed 39 mph    
Visibility 9 miles    
Events      
Averages and records for this station are not official NWS values.
T = Trace of Precipitation, MM = Missing Value Source: NWS Daily Summary

Daily Weather History Graph

Daily Weather History Graph

Search for Another Location

Airport or City:

Trip Planner

Search our weather history database for the weather conditions in past years. The results will help you decide how hot, cold, wet, or windy it might be!

Date:

Astronomy

Nov. 22, 2012 Rise Set
Actual Time 7:14 AM CST 5:25 PM CST
Civil Twilight 6:47 AM CST 5:52 PM CST
Nautical Twilight 6:16 AM CST 6:23 PM CST
Astronomical Twilight 5:46 AM CST 6:53 PM CST
Moon 2:00 PM CST (11/22) 1:48 AM CST (11/22)
Length of Visible Light 11h 05m
Length of Day
10h 10m
Waxing Gibbous, 71% of the Moon is Illuminated
Nov 22
Waxing Gibbous
Nov 28
Full
Dec 6
Last Quarter
Dec 13
New
Dec 19
First Quarter

Hourly Weather History & Observations

Time (CST) Temp. Dew Point Humidity Pressure Visibility Wind Dir Wind Speed Gust Speed Precip Events Conditions
12:53 AM 59.0 °F 48.0 °F 67% 30.02 in 10.0 mi South 8.1 mph - N/A   Clear
1:53 AM 59.0 °F 48.0 °F 67% 30.01 in 10.0 mi South 5.8 mph - N/A   Clear
2:53 AM 57.9 °F 48.0 °F 70% 30.01 in 10.0 mi South 5.8 mph - N/A   Clear
3:53 AM 57.9 °F 48.9 °F 72% 30.00 in 10.0 mi SSE 9.2 mph - N/A   Clear
4:53 AM 57.9 °F 48.9 °F 72% 29.99 in 10.0 mi SSE 6.9 mph - N/A   Clear
5:53 AM 57.9 °F 48.9 °F 72% 29.99 in 10.0 mi SSE 6.9 mph - N/A   Clear
6:53 AM 57.0 °F 48.9 °F 74% 30.00 in 10.0 mi SSE 9.2 mph - N/A   Clear
7:53 AM 59.0 °F 50.0 °F 72% 30.01 in 10.0 mi SSE 8.1 mph - N/A   Clear
8:53 AM 62.1 °F 51.1 °F 67% 30.01 in 10.0 mi South 12.7 mph - N/A   Clear
9:53 AM 64.0 °F 52.0 °F 65% 30.01 in 10.0 mi South 10.4 mph - N/A   Clear
10:53 AM 69.1 °F 52.0 °F 54% 30.00 in 10.0 mi SSW 10.4 mph 24.2 mph N/A   Clear
11:53 AM 72.0 °F 52.0 °F 49% 29.96 in 10.0 mi South 19.6 mph 26.5 mph N/A   Clear
12:53 PM 73.9 °F 52.0 °F 46% 29.94 in 10.0 mi SSW 13.8 mph 25.3 mph N/A   Clear
1:53 PM 77.0 °F 54.0 °F 45% 29.91 in 10.0 mi South 19.6 mph 28.8 mph N/A   Clear
2:53 PM 75.9 °F 54.0 °F 46% 29.90 in 10.0 mi South 18.4 mph 25.3 mph N/A   Clear
3:53 PM 75.9 °F 55.0 °F 48% 29.91 in 10.0 mi South 16.1 mph 24.2 mph N/A   Clear
4:53 PM 73.0 °F 55.9 °F 55% 29.94 in 10.0 mi South 12.7 mph - N/A   Clear
5:53 PM 69.1 °F 55.9 °F 63% 29.95 in 10.0 mi SSE 10.4 mph - N/A   Clear
6:53 PM 64.0 °F 54.0 °F 70% 29.98 in 10.0 mi East 4.6 mph - N/A   Clear
7:53 PM 62.1 °F 54.0 °F 75% 30.01 in 10.0 mi East 5.8 mph - N/A   Clear
8:53 PM 59.0 °F 53.1 °F 81% 30.04 in 10.0 mi North 4.6 mph - N/A   Clear
9:53 PM 64.0 °F 55.9 °F 75% 30.10 in 9.0 mi North 18.4 mph 24.2 mph N/A   Scattered Clouds
10:53 PM 64.0 °F 39.0 °F 40% 30.13 in 6.0 mi NNE 25.3 mph 35.7 mph N/A   Haze
11:07 PM 62.6 °F 39.2 °F 42% 30.16 in 2.5 mi NNE 28.8 mph 39.1 mph N/A   Haze
11:19 PM 62.6 °F 39.2 °F 42% 30.16 in 6.0 mi NNE 29.9 mph 38.0 mph N/A   Haze
11:53 PM 61.0 °F 39.0 °F 44% 30.17 in 9.0 mi NNE 24.2 mph 39.1 mph N/A   Clear